Flag for Germany Weather past 2 weeks in Hilden, North Rhine-Westphalia, Germany

Now
55 °F

Sunny.


Feels Like: 55 °F
Forecast: 43 / 54 °F
Wind: 5 mph from North

Location: Duesseldorf

Current Time: Apr 26, 2015 at 9:58:16 PM

Latest Report: Apr 26, 2015 at 9:20 PM


Visibility: 10 mi

Pressure: 29.68 "Hg

Humidity: 82%

Dew point: 50 °F

Location of HildenLocation

Historic Weather in Hilden — Graph

°F

Hilden temperature yesterday

Maximum temperature yesterday: 63 °F (at 12:20 AM)
Minimum temperature yesterday: 52 °F (at 9:20 AM)
Average temperature yesterday: 56 °F

Past Weeks' High & Low Weather Summary

 TemperatureHumidityPressure
High75 °F (Apr 15, 3:20 PM)100% (Apr 23, 6:20 AM)30.48 "Hg (Apr 23, 6:20 AM)
Low36 °F (Apr 18, 4:50 AM)23% (Apr 21, 3:20 PM)29.68 "Hg (Apr 26, 4:20 PM)
Average53 °F64%30.15 "Hg
* Reported Apr 11 8:20 PM — Apr 26 8:20 PM, Hilden, Weather by CustomWeather, © 2015

Note: Actual official high and low records may vary slightly from our data, if they occured in-between our weather recording intervals... More about our weather records

Advertising

Hilden weather history for previous 24 hours

 ConditionsComfort  
Time TempWeatherWind HumidityBarometerVisibility
8:20 PM
Sun, Apr 26
59 °FSunny.5 mph77%29.68 "Hg10 mi
7:50 PM59 °FBroken clouds.5 mph77%29.68 "HgN/A
7:20 PM59 °FSprinkles. Partly sunny.5 mph72%29.68 "HgN/A
6:50 PM61 °FBroken clouds.5 mph68%29.68 "HgN/A
6:20 PM61 °FPartly sunny.5 mph68%29.68 "HgN/A
5:50 PM61 °FPartly sunny.6 mph68%29.68 "HgN/A
5:20 PM59 °FScattered showers. Partly sunny.3 mph72%29.68 "HgN/A
4:50 PM61 °FSprinkles. Partly sunny.7 mph63%29.68 "HgN/A
4:20 PM63 °FScattered showers. Partly sunny.6 mph64%29.68 "HgN/A
3:50 PM63 °FScattered showers. Partly sunny.8 mph68%29.71 "HgN/A
3:20 PM61 °FScattered showers. Partly sunny.7 mph72%29.71 "HgN/A
2:50 PM61 °FPartly sunny.6 mph72%29.71 "HgN/A
2:20 PM59 °FScattered showers. Partly sunny.8 mph77%29.71 "HgN/A
1:50 PM59 °FSprinkles. Broken clouds.9 mph82%29.74 "HgN/A
1:20 PM61 °FScattered showers. Broken clouds.7 mph72%29.74 "HgN/A
12:50 PM61 °FBroken clouds.8 mph68%29.74 "HgN/A
12:20 PM59 °FBroken clouds.8 mph72%29.74 "HgN/A
11:50 AM59 °FBroken clouds.10 mph77%29.74 "HgN/A
11:20 AM59 °FBroken clouds.10 mph72%29.74 "HgN/A
10:50 AM59 °FBroken clouds.10 mph77%29.74 "HgN/A
10:20 AM57 °FBroken clouds.10 mph82%29.74 "HgN/A
9:50 AM57 °FBroken clouds.9 mph82%29.74 "HgN/A
9:20 AM57 °FPartly sunny.9 mph88%29.74 "HgN/A
8:50 AM55 °FPartly sunny.9 mph94%29.74 "HgN/A
8:20 AM55 °FBroken clouds.8 mph88%29.74 "HgN/A
7:50 AM55 °FPartly sunny.8 mph88%29.74 "HgN/A
7:20 AM54 °FBroken clouds.8 mph94%29.74 "HgN/A
6:50 AM54 °FPartly cloudy.8 mph94%29.74 "HgN/A
6:20 AM54 °FPassing clouds.8 mph94%29.71 "HgN/A
5:50 AM54 °FPassing clouds.7 mph94%29.71 "HgN/A
5:20 AM54 °FSprinkles. Partly cloudy.9 mph94%29.74 "HgN/A
4:50 AM54 °FSprinkles. Partly cloudy.9 mph94%29.74 "HgN/A
4:20 AM54 °FSprinkles. Partly cloudy.8 mph94%29.74 "HgN/A
3:50 AM54 °FSprinkles. Partly cloudy.9 mph94%29.74 "HgN/A
3:20 AM54 °FSprinkles. Partly cloudy.8 mph94%29.74 "HgN/A
2:50 AM54 °FSprinkles. Partly cloudy.8 mph94%29.74 "HgN/A
2:20 AM54 °FSprinkles. Partly cloudy.7 mph94%29.77 "HgN/A
1:50 AM54 °FRain showers. Partly cloudy.13 mph88%29.77 "HgN/A
1:20 AM54 °FPartly cloudy.8 mph88%29.77 "HgN/A
12:50 AM52 °FClear.8 mph94%29.77 "Hg10 mi
12:20 AM52 °FClear.7 mph94%29.77 "Hg10 mi
11:50 PM
Sat, Apr 25
54 °FClear.7 mph88%29.77 "Hg10 mi
11:20 PM54 °FClear.7 mph88%29.77 "Hg10 mi
10:50 PM55 °FClear.7 mph82%29.77 "Hg10 mi
10:20 PM55 °FPassing clouds.8 mph88%29.77 "HgN/A
9:50 PM55 °FPassing clouds.6 mph88%29.77 "HgN/A
9:20 PM55 °FScattered clouds.6 mph88%29.77 "HgN/A
Weather by CustomWeather, © 2015

See weather overviewHow to use our weather pages